Flag for U.S.A. Weather past 2 weeks in Santa Barbara, California, U.S.A.

Now
52 °F

Scattered clouds.


Feels Like: 52 °F
Forecast: 43 / 55 °F
Wind: 3 mph from Northeast

Location: Santa Barbara Municipal Airport

Current Time: Mar 2, 2015 at 9:06:22 AM

Latest Report: Mar 2, 2015 at 7:53 AM


Visibility: 10 mi

Pressure: 29.90 "Hg

Humidity: 80%

Dew point: 46 °F

Location of Santa BarbaraLocation

Historic Weather in Santa Barbara — Graph

°F

Santa Barbara temperature yesterday

Maximum temperature yesterday: 62 °F (at 12:53 PM)
Minimum temperature yesterday: 47 °F (at 11:53 PM)
Average temperature yesterday: 54 °F

Past Weeks' High & Low Weather Summary

 TemperatureHumidityPressure
High72 °F (Feb 24, 1:53 PM)100% (Feb 16, 3:53 AM)30.26 "Hg (Feb 16, 3:53 AM)
Low40 °F (Feb 24, 3:53 AM)27% (Feb 24, 10:53 AM)29.72 "Hg (Feb 27, 2:53 PM)
Average56 °F78%29.97 "Hg
* Reported Feb 15 7:53 AM — Mar 2 7:53 AM, Santa Barbara, Weather by CustomWeather, © 2015

Note: Actual official high and low records may vary slightly from our data, if they occured in-between our weather recording intervals... More about our weather records

Advertising

Santa Barbara weather history for previous 24 hours

 ConditionsComfort  
Time TempWeatherWind HumidityBarometerVisibility
7:53 AM
Mon, Mar 2
52 °FScattered clouds.3 mph80%29.90 "Hg10 mi
6:53 AM48 °FScattered clouds.5 mph89%29.89 "Hg10 mi
5:53 AM51 °FMostly cloudy.No wind80%29.89 "Hg10 mi
4:53 AM47 °FPassing clouds.No wind90%29.88 "Hg10 mi
3:53 AM47 °FPassing clouds.No wind90%29.88 "Hg10 mi
2:53 AM48 °FOvercast.No wind86%29.89 "Hg10 mi
2:04 AM47 °FPassing clouds.No wind86%29.91 "Hg10 mi
1:53 AM47 °FPassing clouds.No wind86%29.90 "Hg10 mi
12:53 AM46 °FClear.No wind89%29.92 "Hg10 mi
11:53 PM
Sun, Mar 1
47 °FClear.No wind83%29.93 "Hg10 mi
10:53 PM50 °FPassing clouds.No wind74%29.94 "Hg10 mi
9:53 PM49 °FPassing clouds.6 mph77%29.95 "Hg10 mi
8:53 PM50 °FPassing clouds.No wind80%29.93 "Hg10 mi
7:53 PM53 °FPassing clouds.No wind74%29.92 "Hg10 mi
6:53 PM53 °FPassing clouds.5 mph77%29.92 "Hg10 mi
5:53 PM55 °FSunny.7 mph72%29.90 "Hg10 mi
4:53 PM59 °FSunny.8 mph62%29.89 "Hg10 mi
3:53 PM60 °FBroken clouds.9 mph60%29.89 "Hg10 mi
2:53 PM61 °FScattered clouds.9 mph60%29.89 "Hg10 mi
1:53 PM62 °FScattered clouds.7 mph56%29.89 "Hg10 mi
12:53 PM62 °FScattered clouds.8 mph56%29.90 "Hg10 mi
11:53 AM61 °FScattered clouds.10 mph60%29.93 "Hg10 mi
10:53 AM60 °FScattered clouds.7 mph60%29.94 "Hg10 mi
9:53 AM58 °FPassing clouds.6 mph60%29.93 "Hg10 mi
Weather by CustomWeather, © 2015

See weather overviewHow to use our weather pages